Location: Friaudour
(46.0460°N, 1.2873°E)
Time: 01:33:44
(UTC+00:00)

BREEZE-M DEB (TANK) - Visible Passes

Search period start: 24 October 2020 00:00
Search period end: 03 November 2020 00:00
Orbit: 288 x 20476 km, 49.2° (Epoch: 23 October)

Date Brightness Start Highest point End Pass type
(mag) Time Alt. Az. Time Alt. Az. Time Alt. Az.
24 Oct 8.2 06:14:19 10° S 07:40:06 42° SE 07:54:19 10° ENE visible
25 Oct 8.1 06:12:37 10° S 07:40:00 43° SE 07:54:04 10° ENE visible
26 Oct 8.1 06:10:58 10° S 07:39:53 44° SE 07:53:47 10° ENE visible
27 Oct 8.1 06:09:21 10° S 07:39:44 45° SE 07:53:29 10° ENE visible
28 Oct 8.1 06:07:47 10° S 07:39:33 47° SE 07:53:09 10° ENE visible
29 Oct 8.1 06:06:15 10° S 07:39:21 48° SE 07:52:47 10° ENE visible
30 Oct 8.0 06:04:45 10° S 07:39:07 49° SE 07:52:24 10° ENE visible
31 Oct 8.0 06:03:18 10° SSW 07:38:51 51° SE 07:51:59 10° ENE visible
01 Nov 8.0 06:01:54 10° SSW 07:38:34 52° SE 07:51:33 10° ENE visible
02 Nov 7.9 06:00:31 10° SSW 07:38:15 53° SE 07:51:05 10° ENE visible
